Tracking 31032 objects as of 14-Jul-2025
HD Live streaming from Space Station
objects crossing your sky now

COSMOS 2219

Track COSMOS 2219 now!
10-day predictions
COSMOS 2219 is classified as:


NORAD ID: 22219
Int'l Code: 1992-076A
Perigee: 838.9 km
Apogee: 866.5 km
Inclination: 71.1 °
Period: 101.8 minutes
Semi major axis: 7223 km
RCS: 7.421 m2 (large)
Launch date: November 17, 1992
Source: Commonwealth of Independent States (former USSR) (CIS)
Launch site: TYURATAM MISSILE AND SPACE COMPLEX (TTMTR)
Your satellite tracking list
Your tracking list is empty




NASA's NSSDC Master Catalog

Two Line Element Set (TLE):
1 22219U 92076A   25194.35030860  .00000079  00000-0  66232-4 0  9995
2 22219  71.0604 158.3746 0019088 212.2465 147.7492 14.14037531684548
Source of the keplerian elements: AFSPC